Location: N�rnberg
(49.4489°N, 11.0797°E)
Time: 14:12:17
(UTC+02:00)

ISS - Pass Details

Date: 06 January 2018
Orbit: 402 x 409 km, 51.6° (Epoch: 21 August)

Event Time Altitude Azimuth Distance (km) Brightness Sun altitude
Exits shadow 06:47:04 23° 293° (WNW) 940 -2.6 -12.9°
Maximum altitude 06:48:58 63° 8° (N) 480 -3.6 -12.6°
Drops below altitude 10° 06:52:21 10° 91° (E) 1,518 0.3 -12.1°
Sets 06:54:29 0° 95° (E) 2,385 1.7 -11.8°
